Flag for Turkmenistan Weather past 2 weeks in Ashgabat, Turkmenistan

Now
70 °F

Clear.


Feels Like: 70 °F
Forecast: 60 / 83 °F
Wind: 3 mph from Southwest

Location: Ashgabat

Current Time: Oct 2, 2014 at 1:40:08 AM

Latest Report: Oct 2, 2014 at 1:00 AM


Visibility: 5 mi

Pressure: 30.04 "Hg

Humidity: 50%

Dew point: 50 °F

Location of AshgabatLocation

Historic Weather in Ashgabat — Graph

°F

Ashgabat temperature yesterday

Maximum temperature yesterday: 81 °F (at 4:00 PM)
Minimum temperature yesterday: 61 °F (at 5:00 AM)
Average temperature yesterday: 70 °F

Past Weeks' High & Low Weather Summary

 TemperatureHumidityPressure
High99 °F (Sep 25, 2:00 PM)88% (Sep 27, 1:00 AM)30.24 "Hg (Sep 27, 1:00 AM)
Low57 °F (Sep 20, 7:00 AM)10% (Sep 20, 5:00 PM)29.68 "Hg (Sep 17, 12:00 AM)
Average75 °F36%29.93 "Hg
* Reported Midnight between Sep 16 and Sep 17 — Midnight between Oct 1 and Oct 2, Ashgabat, Weather by CustomWeather, © 2014

Note: Actual official high and low records may vary slightly from our data, if they occured in-between our weather recording intervals... More about our weather records

Advertising

Ashgabat weather history for previous 24 hours

 ConditionsComfort  
Time TempWeatherWind HumidityBarometerVisibility
12:00 AM
Oct 2
72 °FClear.3 mph44%30.04 "Hg4 mi
11:00 PM
Oct 1
72 °FPassing clouds.3 mph41%30.04 "Hg4 mi
10:00 PM73 °FPassing clouds.1 mph41%30.04 "Hg6 mi
9:00 PM75 °FPassing clouds.3 mph36%30.04 "HgN/A
8:00 PM75 °FPartly cloudy.3 mph34%30.01 "Hg6 mi
7:00 PM77 °FBroken clouds.3 mph34%30.01 "HgN/A
6:00 PM79 °FBroken clouds.3 mph32%30.01 "HgN/A
5:00 PM79 °FPartly sunny.3 mph32%30.01 "HgN/A
4:00 PM81 °FPartly sunny.1 mph30%30.01 "HgN/A
3:00 PM79 °FBroken clouds.3 mph32%30.04 "HgN/A
2:00 PM77 °FPassing clouds.6 mph32%30.04 "HgN/A
1:00 PM75 °FSunny.8 mph34%30.07 "HgN/A
12:00 PM73 °FSunny.8 mph36%30.09 "HgN/A
11:00 AM72 °FSunny.8 mph38%30.12 "Hg6 mi
10:00 AM68 °FSunny.8 mph46%30.12 "Hg6 mi
9:00 AM66 °FSunny.3 mph46%30.12 "HgN/A
8:00 AM63 °FClear.No wind59%30.12 "HgN/A
7:00 AM61 °FClear.No wind59%30.12 "HgN/A
6:00 AM61 °FClear.1 mph63%30.12 "HgN/A
5:00 AM61 °FClear.3 mph55%30.12 "HgN/A
4:00 AM63 °FClear.No wind56%30.12 "HgN/A
3:00 AM64 °FClear.1 mph52%30.12 "Hg6 mi
2:00 AM64 °FClear.3 mph52%30.12 "HgN/A
1:00 AM66 °FClear.3 mph46%30.12 "HgN/A
Weather by CustomWeather, © 2014

See weather overviewHow to use our weather pages